| time (UTC) | temp F | wind direction | speed MPH | gust MPH | rain 1hr in | rain 24hr in | rain mn in | humidity % | barometer mb |
| 20260504023735 | 34 | 39 | 2.0 | 2.0 | 0.00 | 0.00 | 0.00 | 71 | 1021.7 |
| 20260504023236 | 34 | 73 | 3.0 | 3.0 | 0.00 | 0.00 | 0.00 | 72 | 1021.8 |
| 20260504022736 | 34 | 66 | 3.0 | 3.0 | 0.00 | 0.00 | 0.00 | 72 | 1021.7 |
| 20260504022234 | 34 | 46 | 2.0 | 2.0 | 0.00 | 0.00 | 0.00 | 72 | 1021.7 |
| 20260504021734 | 34 | 41 | 2.0 | 5.0 | 0.00 | 0.00 | 0.00 | 72 | 1021.6 |
| 20260504021234 | 34 | 62 | 4.0 | 4.0 | 0.00 | 0.00 | 0.00 | 72 | 1021.6 |
| 20260504020735 | 34 | 94 | 4.0 | 4.0 | 0.00 | 0.00 | 0.00 | 72 | 1021.5 |
| 20260504020235 | 34 | 84 | 3.0 | 4.0 | 0.00 | 0.00 | 0.00 | 72 | 1021.5 |
| 20260504015735 | 34 | 93 | 3.0 | 2.0 | 0.00 | 0.00 | 0.00 | 72 | 1021.4 |
| 20260504015233 | 34 | 59 | 3.0 | 4.0 | 0.00 | 0.00 | 0.00 | 72 | 1021.4 |
| 20260504014733 | 34 | 42 | 4.0 | 2.0 | 0.00 | 0.00 | 0.00 | 72 | 1021.3 |
| 20260504014234 | 34 | 52 | 5.0 | 4.0 | 0.00 | 0.00 | 0.00 | 71 | 1021.3 |
| 20260504013734 | 34 | 63 | 4.0 | 2.0 | 0.00 | 0.00 | 0.00 | 71 | 1021.3 |
| 20260504013234 | 34 | 83 | 3.0 | 5.0 | 0.00 | 0.00 | 0.00 | 71 | 1021.2 |
| 20260504012735 | 34 | 72 | 2.0 | 6.0 | 0.00 | 0.00 | 0.00 | 72 | 1021.1 |
| 20260504012232 | 34 | 48 | 2.0 | 1.0 | 0.00 | 0.00 | 0.00 | 72 | 1021.1 |
| 20260504011733 | 34 | 46 | 4.0 | 3.0 | 0.00 | 0.00 | 0.00 | 71 | 1021.0 |
| 20260504011233 | 35 | 31 | 4.0 | 5.0 | 0.00 | 0.00 | 0.00 | 72 | 1020.9 |
| 20260504010733 | 34 | 68 | 2.0 | 5.0 | 0.00 | 0.00 | 0.00 | 72 | 1020.9 |
| 20260504010234 | 35 | 37 | 3.0 | 2.0 | 0.00 | 0.00 | 0.00 | 72 | 1020.9 |
| 20260504005734 | 34 | 35 | 4.0 | 3.0 | 0.00 | 0.00 | 0.00 | 71 | 1020.7 |
| 20260504005232 | 35 | 62 | 5.0 | 3.0 | 0.00 | 0.00 | 0.00 | 71 | 1020.7 |
| 20260504004732 | 35 | 65 | 5.0 | 6.0 | 0.00 | 0.00 | 0.00 | 71 | 1020.6 |
| 20260504004232 | 35 | 75 | 3.0 | 2.0 | 0.00 | 0.00 | 0.00 | 71 | 1020.5 |
| 20260504003733 | 35 | 58 | 6.0 | 4.0 | 0.00 | 0.00 | 0.00 | 71 | 1020.5 |
| 20260504003233 | 35 | 30 | 6.0 | 5.0 | 0.00 | 0.00 | 0.00 | 71 | 1020.4 |
| 20260504002733 | 34 | 31 | 7.0 | 7.0 | 0.00 | 0.00 | 0.00 | 71 | 1020.4 |
| 20260504002231 | 34 | 21 | 7.0 | 5.0 | 0.00 | 0.00 | 0.00 | 71 | 1020.3 |
| 20260504001732 | 35 | 21 | 7.0 | 7.0 | 0.00 | 0.00 | 0.00 | 71 | 1020.3 |
| 20260504001232 | 34 | 37 | 5.0 | 5.0 | 0.00 | 0.00 | 0.00 | 71 | 1020.2 |
| 20260504000732 | 34 | 20 | 6.0 | 5.0 | 0.00 | 0.00 | 0.00 | 71 | 1020.1 |
| 20260504000234 | 34 | 31 | 7.0 | 7.0 | 0.00 | 0.00 | 0.00 | 71 | 1020.1 |
| 20260503235733 | 35 | 35 | 6.0 | 8.0 | 0.00 | 0.00 | 0.00 | 71 | 1020.0 |
| 20260503235230 | 35 | 105 | 3.0 | 2.0 | 0.00 | 0.00 | 0.00 | 71 | 1019.9 |
| 20260503234731 | 35 | 100 | 5.0 | 4.0 | 0.00 | 0.00 | 0.00 | 70 | 1019.8 |
| 20260503234231 | 35 | 83 | 5.0 | 6.0 | 0.00 | 0.00 | 0.00 | 71 | 1019.8 |
| 20260503233731 | 35 | 105 | 5.0 | 2.0 | 0.00 | 0.00 | 0.00 | 71 | 1019.7 |
| 20260503233232 | 35 | 76 | 5.0 | 6.0 | 0.00 | 0.00 | 0.00 | 71 | 1019.7 |
| 20260503232732 | 35 | 52 | 4.0 | 3.0 | 0.00 | 0.00 | 0.00 | 71 | 1019.6 |
| 20260503232230 | 35 | 111 | 5.0 | 5.0 | 0.00 | 0.00 | 0.00 | 71 | 1019.7 |
| 20260503231730 | 35 | 66 | 4.0 | 2.0 | 0.00 | 0.00 | 0.00 | 71 | 1019.4 |
| 20260503231231 | 35 | 82 | 4.0 | 3.0 | 0.00 | 0.00 | 0.00 | 71 | 1019.3 |
| 20260503230731 | 35 | 34 | 5.0 | 8.0 | 0.00 | 0.00 | 0.00 | 71 | 1019.2 |
| 20260503230231 | 35 | 42 | 5.0 | 4.0 | 0.00 | 0.00 | 0.00 | 71 | 1019.1 |
| 20260503225732 | 35 | 60 | 2.0 | 2.0 | 0.00 | 0.00 | 0.00 | 71 | 1019.1 |
| 20260503225229 | 35 | 69 | 4.0 | 4.0 | 0.00 | 0.00 | 0.00 | 70 | 1019.0 |
| 20260503224730 | 35 | 55 | 4.0 | 2.0 | 0.00 | 0.00 | 0.00 | 69 | 1018.9 |
| 20260503224230 | 35 | 75 | 3.0 | 2.0 | 0.00 | 0.00 | 0.00 | 69 | 1018.9 |
| 20260503223731 | 35 | 120 | 4.0 | 3.0 | 0.00 | 0.00 | 0.00 | 69 | 1018.7 |
| 20260503223231 | 35 | 66 | 3.0 | 0.0 | 0.00 | 0.00 | 0.00 | 70 | 1018.7 |
| 20260503222731 | 35 | 77 | 6.0 | 6.0 | 0.00 | 0.00 | 0.00 | 69 | 1018.6 |
| 20260503222229 | 35 | 91 | 6.0 | 6.0 | 0.00 | 0.00 | 0.00 | 69 | 1018.6 |
| 20260503221729 | 35 | 113 | 2.0 | 3.0 | 0.00 | 0.00 | 0.00 | 70 | 1018.5 |
| 20260503221230 | 35 | 55 | 4.0 | 5.0 | 0.00 | 0.00 | 0.00 | 70 | 1018.5 |
| 20260503220730 | 35 | 48 | 3.0 | 4.0 | 0.00 | 0.00 | 0.00 | 70 | 1018.3 |
| 20260503220230 | 35 | 53 | 6.0 | 6.0 | 0.00 | 0.00 | 0.00 | 69 | 1018.3 |
| 20260503215731 | 35 | 63 | 3.0 | 6.0 | 0.00 | 0.00 | 0.00 | 69 | 1018.2 |
| 20260503215228 | 35 | 28 | 4.0 | 4.0 | 0.00 | 0.00 | 0.00 | 69 | 1018.2 |
| 20260503214729 | 35 | 76 | 4.0 | 1.0 | 0.00 | 0.00 | 0.00 | 69 | 1018.2 |
| 20260503214229 | 35 | 107 | 0.0 | 6.0 | 0.00 | 0.00 | 0.00 | 69 | 1018.2 |
| 20260503213730 | 34 | 27 | 5.0 | 4.0 | 0.00 | 0.00 | 0.00 | 69 | 1018.2 |
| 20260503213230 | 35 | 30 | 5.0 | 7.0 | 0.00 | 0.00 | 0.00 | 69 | 1018.2 |
| 20260503212730 | 35 | 73 | 5.0 | 5.0 | 0.00 | 0.00 | 0.00 | 68 | 1018.2 |
| 20260503212228 | 35 | 42 | 4.0 | 3.0 | 0.00 | 0.00 | 0.00 | 69 | 1018.1 |
| 20260503211728 | 35 | 70 | 4.0 | 6.0 | 0.00 | 0.00 | 0.00 | 70 | 1018.0 |
| 20260503211229 | 34 | 59 | 7.0 | 6.0 | 0.00 | 0.00 | 0.00 | 69 | 1018.0 |
| 20260503210729 | 34 | 100 | 8.0 | 4.0 | 0.00 | 0.00 | 0.00 | 70 | 1017.9 |
| 20260503210229 | 34 | 70 | 6.0 | 5.0 | 0.00 | 0.00 | 0.00 | 69 | 1017.9 |
| 20260503205730 | 34 | 55 | 6.0 | 8.0 | 0.00 | 0.00 | 0.00 | 69 | 1017.9 |
| 20260503205227 | 35 | 82 | 7.0 | 9.0 | 0.00 | 0.00 | 0.00 | 68 | 1017.9 |
| 20260503204728 | 35 | 72 | 6.0 | 6.0 | 0.00 | 0.00 | 0.00 | 69 | 1017.9 |
| 20260503204228 | 34 | 69 | 5.0 | 7.0 | 0.00 | 0.00 | 0.00 | 70 | 1017.8 |
| 20260503203728 | 34 | 1 | 7.0 | 7.0 | 0.00 | 0.00 | 0.00 | 70 | 1017.9 |
| 20260503203229 | 34 | 69 | 6.0 | 2.0 | 0.00 | 0.00 | 0.00 | 70 | 1017.9 |
| 20260503202729 | 34 | 51 | 4.0 | 6.0 | 0.00 | 0.00 | 0.00 | 71 | 1017.9 |
| 20260503202227 | 33 | 17 | 5.0 | 7.0 | 0.00 | 0.00 | 0.00 | 70 | 1017.8 |
| 20260503201727 | 34 | 34 | 3.0 | 3.0 | 0.00 | 0.00 | 0.00 | 71 | 1017.8 |
| 20260503201228 | 33 | 80 | 7.0 | 9.0 | 0.00 | 0.00 | 0.00 | 71 | 1017.7 |
| 20260503200728 | 33 | 65 | 6.0 | 7.0 | 0.00 | 0.00 | 0.00 | 71 | 1017.7 |
| 20260503200228 | 33 | 59 | 6.0 | 5.0 | 0.00 | 0.00 | 0.00 | 72 | 1017.7 |
| 20260503195729 | 33 | 15 | 6.0 | 5.0 | 0.00 | 0.00 | 0.00 | 72 | 1017.6 |
| 20260503195226 | 33 | 69 | 4.0 | 6.0 | 0.00 | 0.00 | 0.00 | 73 | 1017.6 |
| 20260503194727 | 33 | 63 | 5.0 | 7.0 | 0.00 | 0.00 | 0.00 | 73 | 1017.6 |
| 20260503194227 | 32 | 32 | 3.0 | 5.0 | 0.00 | 0.00 | 0.00 | 75 | 1017.6 |
| 20260503193728 | 32 | 38 | 8.0 | 7.0 | 0.00 | 0.00 | 0.00 | 73 | 1017.6 |
| 20260503193228 | 33 | 24 | 6.0 | 4.0 | 0.00 | 0.00 | 0.00 | 74 | 1017.6 |
| 20260503192728 | 32 | 49 | 6.0 | 5.0 | 0.00 | 0.00 | 0.00 | 74 | 1017.6 |
| 20260503192226 | 32 | 65 | 3.0 | 6.0 | 0.00 | 0.00 | 0.00 | 74 | 1017.6 |
| 20260503191727 | 32 | 18 | 5.0 | 7.0 | 0.00 | 0.00 | 0.00 | 74 | 1017.6 |
| 20260503191227 | 32 | 44 | 3.0 | 6.0 | 0.00 | 0.00 | 0.00 | 74 | 1017.5 |
| 20260503190727 | 31 | 55 | 5.0 | 5.0 | 0.00 | 0.00 | 0.00 | 74 | 1017.5 |
| 20260503190228 | 32 | 44 | 5.0 | 7.0 | 0.00 | 0.00 | 0.00 | 74 | 1017.4 |
| 20260503185728 | 31 | 27 | 5.0 | 6.0 | 0.00 | 0.00 | 0.00 | 75 | 1017.4 |
| 20260503185226 | 31 | 53 | 7.0 | 9.0 | 0.00 | 0.00 | 0.00 | 75 | 1017.3 |
| 20260503184726 | 31 | 84 | 7.0 | 5.0 | 0.00 | 0.00 | 0.00 | 75 | 1017.3 |
| 20260503184226 | 31 | 75 | 6.0 | 6.0 | 0.00 | 0.00 | 0.00 | 75 | 1017.2 |
| 20260503183727 | 30 | 44 | 6.0 | 7.0 | 0.00 | 0.00 | 0.00 | 75 | 1017.2 |
| 20260503183227 | 31 | 70 | 5.0 | 10.0 | 0.00 | 0.00 | 0.00 | 76 | 1017.1 |
| 20260503182727 | 30 | 76 | 4.0 | 5.0 | 0.00 | 0.00 | 0.00 | 76 | 1017.1 |
| 20260503182225 | 30 | 59 | 5.0 | 4.0 | 0.00 | 0.00 | 0.00 | 77 | 1017.1 |
| 20260503181725 | 30 | 4 | 7.0 | 8.0 | 0.00 | 0.00 | 0.00 | 77 | 1017.0 |
| 20260503181226 | 30 | 30 | 8.0 | 6.0 | 0.00 | 0.00 | 0.00 | 76 | 1017.0 |
| 20260503180726 | 30 | 35 | 6.0 | 5.0 | 0.00 | 0.00 | 0.00 | 77 | 1017.0 |
| 20260503180226 | 30 | 76 | 4.0 | 5.0 | 0.00 | 0.00 | 0.00 | 77 | 1017.0 |
| 20260503175727 | 30 | 60 | 5.0 | 4.0 | 0.00 | 0.00 | 0.00 | 77 | 1017.0 |
| 20260503175224 | 29 | 32 | 4.0 | 6.0 | 0.00 | 0.00 | 0.00 | 78 | 1016.9 |
| 20260503174724 | 29 | 55 | 7.0 | 8.0 | 0.00 | 0.00 | 0.00 | 77 | 1016.8 |
| 20260503174225 | 29 | 86 | 5.0 | 8.0 | 0.00 | 0.00 | 0.00 | 78 | 1016.8 |
| 20260503173725 | 29 | 93 | 2.0 | 1.0 | 0.00 | 0.00 | 0.00 | 79 | 1016.8 |
| 20260503173225 | 29 | 31 | 3.0 | 7.0 | 0.00 | 0.00 | 0.00 | 78 | 1016.8 |
| 20260503172726 | 29 | 24 | 4.0 | 7.0 | 0.00 | 0.00 | 0.00 | 79 | 1016.7 |
| 20260503172223 | 29 | 73 | 4.0 | 5.0 | 0.00 | 0.00 | 0.00 | 79 | 1016.7 |
| 20260503171724 | 28 | 25 | 5.0 | 6.0 | 0.00 | 0.00 | 0.00 | 79 | 1016.6 |
| 20260503171224 | 28 | 42 | 5.0 | 5.0 | 0.00 | 0.00 | 0.00 | 79 | 1016.7 |
| 20260503170724 | 29 | 77 | 6.0 | 3.0 | 0.00 | 0.00 | 0.00 | 80 | 1016.6 |
| 20260503170225 | 28 | 37 | 5.0 | 7.0 | 0.00 | 0.00 | 0.00 | 79 | 1016.6 |
| 20260503150721 | 27 | 56 | 5.0 | 6.0 | 0.00 | 0.00 | 0.00 | 82 | 1015.9 |
| 20260503150221 | 27 | 66 | 4.0 | 6.0 | 0.00 | 0.00 | 0.00 | 83 | 1015.8 |
| 20260503140219 | 26 | 98 | 4.0 | 3.0 | 0.00 | 0.00 | 0.00 | 85 | 1015.2 |
| 20260503131216 | 25 | 72 | 5.0 | 2.0 | 0.00 | 0.00 | 0.00 | 90 | 1014.9 |
| 20260503130717 | 25 | 49 | 6.0 | 6.0 | 0.00 | 0.00 | 0.00 | 90 | 1014.9 |
| 20260503130217 | 25 | 48 | 4.0 | 7.0 | 0.00 | 0.00 | 0.00 | 90 | 1014.9 |
| 20260503120214 | 26 | 80 | 6.0 | 6.0 | 0.00 | 0.00 | 0.00 | 91 | 1014.3 |
| 20260503110710 | 27 | 65 | 5.0 | 6.0 | 0.00 | 0.00 | 0.00 | 91 | 1013.4 |
| 20260503110210 | 27 | 55 | 6.0 | 9.0 | 0.00 | 0.00 | 0.00 | 91 | 1013.3 |
| 20260503100207 | 28 | 86 | 6.0 | 5.0 | 0.00 | 0.00 | 0.00 | 89 | 1012.1 |
| 20260503090204 | 29 | 94 | 4.0 | 3.0 | 0.00 | 0.00 | 0.00 | 88 | 1011.5 |
| 20260503081201 | 30 | 35 | 5.0 | 6.0 | 0.00 | 0.00 | 0.00 | 88 | 1010.9 |
| 20260503080701 | 30 | 107 | 3.0 | 2.0 | 0.00 | 0.00 | 0.00 | 88 | 1010.9 |
| 20260503080201 | 31 | 41 | 4.0 | 2.0 | 0.00 | 0.00 | 0.00 | 87 | 1010.9 |
| 20260503072700 | 31 | 68 | 6.0 | 6.0 | 0.00 | 0.00 | 0.00 | 87 | 1010.5 |
| 20260503072158 | 31 | 69 | 6.0 | 3.0 | 0.00 | 0.00 | 0.00 | 87 | 1010.4 |
| 20260503071658 | 31 | 136 | 6.0 | 3.0 | 0.00 | 0.00 | 0.00 | 86 | 1010.4 |
| 20260503071158 | 31 | 3 | 5.0 | 7.0 | 0.00 | 0.00 | 0.00 | 87 | 1010.4 |
| 20260503070659 | 31 | 79 | 6.0 | 8.0 | 0.00 | 0.00 | 0.00 | 87 | 1010.3 |
| 20260503070159 | 31 | 89 | 6.0 | 3.0 | 0.00 | 0.00 | 0.00 | 88 | 1010.2 |
| 20260503060156 | 32 | 76 | 7.0 | 4.0 | 0.00 | 0.00 | 0.00 | 89 | 1009.7 |
| 20260503054654 | 32 | 104 | 7.0 | 4.0 | 0.00 | 0.00 | 0.00 | 85 | 1009.7 |
| 20260503054154 | 32 | 97 | 6.0 | 9.0 | 0.00 | 0.00 | 0.00 | 84 | 1009.6 |
| 20260503053655 | 33 | 75 | 3.0 | 4.0 | 0.00 | 0.00 | 0.00 | 84 | 1009.5 |
| 20260503053155 | 33 | 76 | 4.0 | 3.0 | 0.00 | 0.00 | 0.00 | 84 | 1009.5 |
| 20260503052655 | 33 | 44 | 6.0 | 0.0 | 0.00 | 0.00 | 0.00 | 83 | 1009.4 |
| 20260503052153 | 33 | 68 | 4.0 | 6.0 | 0.00 | 0.00 | 0.00 | 82 | 1009.4 |
| 20260503051653 | 33 | 77 | 2.0 | 7.0 | 0.00 | 0.00 | 0.00 | 81 | 1009.4 |
| 20260503051153 | 33 | 124 | 6.0 | 4.0 | 0.00 | 0.00 | 0.00 | 81 | 1009.4 |
| 20260503050654 | 33 | 75 | 6.0 | 6.0 | 0.00 | 0.00 | 0.00 | 81 | 1009.4 |
| 20260503050154 | 33 | 68 | 5.0 | 4.0 | 0.00 | 0.00 | 0.00 | 81 | 1009.4 |
| 20260503045654 | 33 | 69 | 3.0 | 6.0 | 0.00 | 0.00 | 0.00 | 81 | 1009.4 |
| 20260503045152 | 34 | 72 | 5.0 | 10.0 | 0.00 | 0.00 | 0.00 | 80 | 1009.4 |
| 20260503044652 | 34 | 65 | 4.0 | 2.0 | 0.00 | 0.00 | 0.00 | 80 | 1009.4 |
| 20260503044152 | 34 | 75 | 4.0 | 4.0 | 0.00 | 0.00 | 0.00 | 79 | 1009.4 |
| 20260503043653 | 34 | 97 | 6.0 | 5.0 | 0.00 | 0.00 | 0.00 | 79 | 1009.4 |
| 20260503043153 | 34 | 93 | 5.0 | 8.0 | 0.00 | 0.00 | 0.00 | 79 | 1009.4 |
| 20260503042653 | 34 | 131 | 6.0 | 5.0 | 0.00 | 0.00 | 0.00 | 79 | 1009.3 |
| 20260503042151 | 34 | 82 | 5.0 | 9.0 | 0.00 | 0.00 | 0.00 | 78 | 1009.2 |
| 20260503041651 | 34 | 97 | 6.0 | 4.0 | 0.00 | 0.00 | 0.00 | 78 | 1009.2 |
| 20260503041152 | 34 | 66 | 4.0 | 8.0 | 0.00 | 0.00 | 0.00 | 79 | 1009.2 |
| 20260503040652 | 35 | 49 | 6.0 | 5.0 | 0.00 | 0.00 | 0.00 | 79 | 1009.1 |
| 20260503040152 | 35 | 84 | 5.0 | 3.0 | 0.00 | 0.00 | 0.00 | 79 | 1009.1 |
| 20260503035653 | 35 | 94 | 5.0 | 5.0 | 0.00 | 0.00 | 0.00 | 78 | 1009.0 |
| 20260503035150 | 35 | 79 | 7.0 | 10.0 | 0.00 | 0.00 | 0.00 | 78 | 1008.9 |
| 20260503034650 | 35 | 111 | 4.0 | 6.0 | 0.00 | 0.00 | 0.00 | 78 | 1008.8 |
| 20260503034151 | 35 | 94 | 6.0 | 3.0 | 0.00 | 0.00 | 0.00 | 78 | 1008.7 |
| 20260503033651 | 35 | 152 | 4.0 | 3.0 | 0.00 | 0.00 | 0.00 | 79 | 1008.7 |
| 20260503033151 | 35 | 75 | 6.0 | 5.0 | 0.00 | 0.00 | 0.00 | 78 | 1008.6 |
| 20260503032652 | 35 | 91 | 3.0 | 3.0 | 0.00 | 0.00 | 0.00 | 78 | 1008.5 |
| 20260503032149 | 36 | 76 | 3.0 | 5.0 | 0.00 | 0.00 | 0.00 | 78 | 1008.4 |
| 20260503031650 | 36 | 60 | 6.0 | 5.0 | 0.00 | 0.00 | 0.00 | 77 | 1008.3 |
| 20260503031150 | 36 | 87 | 4.0 | 6.0 | 0.00 | 0.00 | 0.00 | 77 | 1008.3 |
| 20260503030650 | 36 | 60 | 3.0 | 6.0 | 0.00 | 0.00 | 0.00 | 77 | 1008.1 |
| 20260503030150 | 36 | 124 | 7.0 | 4.0 | 0.00 | 0.00 | 0.00 | 76 | 1008.0 |
| 20260503025651 | 36 | 111 | 4.0 | 5.0 | 0.00 | 0.00 | 0.00 | 75 | 1008.0 |
| 20260503025148 | 36 | 79 | 4.0 | 2.0 | 0.00 | 0.00 | 0.00 | 75 | 1008.0 |
| 20260503024649 | 36 | 90 | 5.0 | 4.0 | 0.00 | 0.00 | 0.00 | 75 | 1008.0 |
| 20260503024149 | 36 | 80 | 0.0 | 0.0 | 0.00 | 0.00 | 0.00 | 75 | 1007.9 |